When you browse on this site, cookies collect data to enhance your experience and personalize the content and advertising you see.
Visit our Privacy Policy to learn more. By continuing to use the site, you agree to this use of cookies and data.
  • en France
  • Liste des pays
  • À 7 jours
  • Température de l'eau
  • Carte météo
  • Widgets météo
  • user-avatar
    Se connecter

    Météo par heure à Duala

    Ce jour, 25 Mai, Lundi

    Heure Température Précipitation Vent Pression Humidité
    00:00 +28°C° 0.6 mm 1 m/s 759 mmHg 90%
    01:00 +28°C° 0 mm 1 m/s 759 mmHg 90%
    02:00 +25°C° 0.3 mm 0 m/s 758 mmHg 91%
    03:00 +25°C° 0.3 mm 0 m/s 758 mmHg 91%
    04:00 +25°C° 0.3 mm 0 m/s 758 mmHg 91%
    05:00 +25°C° 0.3 mm 0 m/s 758 mmHg 92%
    06:00 +25°C° 0.3 mm 0 m/s 758 mmHg 92%
    07:00 +27°C° 0 mm 1 m/s 759 mmHg 91%
    08:00 +29°C° 0.5 mm 1 m/s 759 mmHg 84%
    09:00 +30°C° 0.5 mm 1 m/s 759 mmHg 78%
    10:00 +30°C° 0.5 mm 0 m/s 759 mmHg 72%
    11:00 +32°C° 1.2 mm 1 m/s 758 mmHg 73%
    12:00 +32°C° 1.2 mm 2 m/s 758 mmHg 74%
    13:00 +33°C° 1.2 mm 3 m/s 758 mmHg 75%
    14:00 +31°C° 0.8 mm 3 m/s 757 mmHg 76%
    15:00 +31°C° 0.8 mm 3 m/s 756 mmHg 76%
    16:00 +31°C° 0.8 mm 3 m/s 756 mmHg 76%
    17:00 +30°C° 1.5 mm 3 m/s 756 mmHg 81%
    18:00 +29°C° 1.5 mm 2 m/s 757 mmHg 86%
    19:00 +28°C° 1.5 mm 2 m/s 758 mmHg 91%
    20:00 +27°C° 3.4 mm 1 m/s 758 mmHg 92%
    21:00 +27°C° 3.4 mm 1 m/s 758 mmHg 94%
    22:00 +25°C° 3.4 mm 0 m/s 759 mmHg 96%
    23:00 +25°C° 0.9 mm 0 m/s 759 mmHg 96%

    Demain, 26 Mai, Mardi

    Heure Température Précipitation Vent Pression Humidité
    00:00 +25°C° 0.9 mm 0 m/s 759 mmHg 95%
    01:00 +24°C° 0.9 mm 0 m/s 759 mmHg 95%
    02:00 +26°C° 0.1 mm 1 m/s 758 mmHg 95%
    03:00 +26°C° 0.1 mm 1 m/s 758 mmHg 95%
    04:00 +26°C° 0.1 mm 1 m/s 758 mmHg 95%
    05:00 +26°C° 0 mm 1 m/s 758 mmHg 95%
    06:00 +26°C° 0 mm 1 m/s 759 mmHg 94%
    07:00 +26°C° 0 mm 1 m/s 759 mmHg 93%
    08:00 +29°C° 0 mm 1 m/s 759 mmHg 84%
    09:00 +29°C° 0 mm 0 m/s 760 mmHg 75%
    10:00 +31°C° 0 mm 0 m/s 760 mmHg 66%
    11:00 +34°C° 0 mm 1 m/s 759 mmHg 62%
    12:00 +34°C° 0 mm 1 m/s 759 mmHg 59%
    13:00 +36°C° 0 mm 2 m/s 758 mmHg 55%
    14:00 +35°C° 0.1 mm 2 m/s 757 mmHg 59%
    15:00 +35°C° 0.1 mm 2 m/s 757 mmHg 62%
    16:00 +34°C° 0.1 mm 3 m/s 756 mmHg 66%
    17:00 +31°C° 0.2 mm 3 m/s 757 mmHg 72%
    18:00 +30°C° 0.2 mm 2 m/s 757 mmHg 78%
    19:00 +29°C° 0.2 mm 2 m/s 758 mmHg 84%
    20:00 +28°C° 0 mm 2 m/s 758 mmHg 86%
    21:00 +28°C° 0 mm 2 m/s 758 mmHg 87%
    22:00 +28°C° 0 mm 1 m/s 758 mmHg 89%
    23:00 +28°C° 0 mm 1 m/s 758 mmHg 90%

    Après-demain, 27 Mai, Mercredi

    Heure Température Précipitation Vent Pression Humidité
    00:00 +27°C° 0 mm 1 m/s 758 mmHg 91%
    01:00 +25°C° 0 mm 0 m/s 758 mmHg 91%
    02:00 +25°C° 0.1 mm 0 m/s 758 mmHg 92%
    03:00 +27°C° 0.1 mm 1 m/s 758 mmHg 93%
    04:00 +27°C° 0.1 mm 1 m/s 758 mmHg 93%
    05:00 +27°C° 0.6 mm 1 m/s 758 mmHg 94%
    06:00 +27°C° 0.6 mm 1 m/s 759 mmHg 94%
    07:00 +27°C° 0.6 mm 1 m/s 759 mmHg 94%
    08:00 +27°C° 0.4 mm 1 m/s 759 mmHg 92%
    09:00 +28°C° 0.4 mm 1 m/s 759 mmHg 89%
    10:00 +29°C° 0.4 mm 1 m/s 760 mmHg 87%
    11:00 +30°C° 0 mm 1 m/s 759 mmHg 80%
    12:00 +31°C° 0 mm 1 m/s 758 mmHg 73%
    13:00 +32°C° 0 mm 1 m/s 758 mmHg 66%
    14:00 +33°C° 0 mm 1 m/s 757 mmHg 65%
    15:00 +34°C° 0 mm 2 m/s 756 mmHg 64%
    16:00 +34°C° 0 mm 3 m/s 755 mmHg 63%
    17:00 +33°C° 0.1 mm 3 m/s 756 mmHg 70%
    18:00 +30°C° 0.1 mm 2 m/s 756 mmHg 77%
    19:00 +28°C° 0.1 mm 2 m/s 757 mmHg 85%
    20:00 +28°C° 0.3 mm 2 m/s 757 mmHg 86%
    21:00 +28°C° 0.3 mm 2 m/s 758 mmHg 87%
    22:00 +28°C° 0.3 mm 1 m/s 758 mmHg 89%
    23:00 +28°C° 0.1 mm 1 m/s 758 mmHg 90%

    28 Mai, Jeudi

    Heure Température Précipitation Vent Pression Humidité
    00:00 +28°C° 0.1 mm 1 m/s 758 mmHg 90%
    01:00 +25°C° 0.1 mm 0 m/s 758 mmHg 91%
    02:00 +27°C° 0.1 mm 1 m/s 758 mmHg 92%
    03:00 +27°C° 0.1 mm 1 m/s 757 mmHg 93%
    04:00 +27°C° 0.1 mm 1 m/s 757 mmHg 94%
    05:00 +27°C° 0.2 mm 1 m/s 757 mmHg 93%
    06:00 +25°C° 0.2 mm 0 m/s 758 mmHg 92%
    07:00 +25°C° 0.2 mm 0 m/s 758 mmHg 91%
    08:00 +29°C° 0 mm 1 m/s 759 mmHg 84%
    09:00 +30°C° 0 mm 1 m/s 759 mmHg 77%
    10:00 +32°C° 0 mm 1 m/s 759 mmHg 70%
    11:00 +32°C° 0.2 mm 2 m/s 758 mmHg 69%
    12:00 +34°C° 0.2 mm 2 m/s 758 mmHg 68%
    13:00 +34°C° 0.2 mm 3 m/s 757 mmHg 68%
    14:00 +33°C° 0.4 mm 3 m/s 756 mmHg 69%
    15:00 +33°C° 0.4 mm 3 m/s 756 mmHg 71%
    16:00 +33°C° 0.4 mm 3 m/s 756 mmHg 73%
    17:00 +31°C° 0.2 mm 3 m/s 756 mmHg 78%
    18:00 +30°C° 0.2 mm 3 m/s 757 mmHg 82%
    19:00 +29°C° 0.2 mm 2 m/s 757 mmHg 87%
    20:00 +28°C° 0.3 mm 2 m/s 758 mmHg 88%
    21:00 +28°C° 0.3 mm 1 m/s 758 mmHg 90%
    22:00 +28°C° 0.3 mm 1 m/s 759 mmHg 91%
    23:00 +28°C° 0.4 mm 1 m/s 758 mmHg 91%

    29 Mai, Vendredi

    Heure Température Précipitation Vent Pression Humidité
    00:00 +28°C° 0.4 mm 1 m/s 758 mmHg 92%
    01:00 +27°C° 0.4 mm 1 m/s 758 mmHg 92%
    02:00 +25°C° 0.2 mm 0 m/s 757 mmHg 93%
    03:00 +25°C° 0.2 mm 0 m/s 757 mmHg 93%
    04:00 +25°C° 0.2 mm 0 m/s 757 mmHg 93%
    05:00 +25°C° 0.1 mm 0 m/s 757 mmHg 93%
    06:00 +25°C° 0.1 mm 0 m/s 758 mmHg 93%
    07:00 +25°C° 0.1 mm 0 m/s 758 mmHg 92%
    08:00 +26°C° 0.1 mm 0 m/s 758 mmHg 88%
    09:00 +28°C° 0.1 mm 0 m/s 759 mmHg 84%
    10:00 +29°C° 0.1 mm 0 m/s 759 mmHg 79%
    11:00 +31°C° 1.1 mm 1 m/s 758 mmHg 78%
    12:00 +32°C° 1.1 mm 2 m/s 758 mmHg 76%
    13:00 +32°C° 1.1 mm 2 m/s 757 mmHg 74%
    14:00 +31°C° 2.4 mm 3 m/s 756 mmHg 79%
    15:00 +30°C° 2.4 mm 3 m/s 756 mmHg 83%
    16:00 +29°C° 2.4 mm 3 m/s 756 mmHg 88%
    17:00 +28°C° 0.4 mm 3 m/s 756 mmHg 89%
    18:00 +28°C° 0.4 mm 2 m/s 756 mmHg 91%
    19:00 +27°C° 0.4 mm 1 m/s 757 mmHg 92%
    20:00 +27°C° 0 mm 1 m/s 757 mmHg 92%
    21:00 +27°C° 0 mm 1 m/s 758 mmHg 92%
    22:00 +27°C° 0 mm 1 m/s 758 mmHg 92%
    23:00 +27°C° 0 mm 1 m/s 758 mmHg 93%

    30 Mai, Samedi

    Heure Température Précipitation Vent Pression Humidité
    00:00 +27°C° 0 mm 1 m/s 758 mmHg 93%
    01:00 +26°C° 0 mm 1 m/s 757 mmHg 94%
    02:00 +26°C° 0 mm 1 m/s 757 mmHg 94%
    03:00 +26°C° 0 mm 1 m/s 757 mmHg 95%
    04:00 +26°C° 0 mm 1 m/s 757 mmHg 95%
    05:00 +26°C° 0 mm 1 m/s 757 mmHg 95%
    06:00 +26°C° 0 mm 1 m/s 758 mmHg 94%
    07:00 +26°C° 0 mm 1 m/s 758 mmHg 93%
    08:00 +28°C° 0 mm 1 m/s 758 mmHg 85%
    09:00 +28°C° 0 mm 0 m/s 759 mmHg 77%
    10:00 +30°C° 0 mm 0 m/s 759 mmHg 69%
    11:00 +33°C° 0 mm 1 m/s 758 mmHg 64%
    12:00 +34°C° 0 mm 1 m/s 758 mmHg 58%
    13:00 +36°C° 0 mm 1 m/s 757 mmHg 53%
    14:00 +36°C° 0 mm 2 m/s 756 mmHg 55%
    15:00 +35°C° 0 mm 2 m/s 756 mmHg 57%
    16:00 +35°C° 0 mm 3 m/s 755 mmHg 59%
    17:00 +33°C° 0 mm 3 m/s 756 mmHg 66%
    18:00 +30°C° 0 mm 3 m/s 756 mmHg 73%
    19:00 +29°C° 0 mm 2 m/s 757 mmHg 80%
    20:00 +28°C° 0.2 mm 2 m/s 757 mmHg 83%
    21:00 +28°C° 0.2 mm 2 m/s 757 mmHg 86%
    22:00 +28°C° 0.2 mm 1 m/s 758 mmHg 89%
    23:00 +27°C° 0.3 mm 1 m/s 758 mmHg 90%
    Voir plus